Flag for Guernsey Weather past 2 weeks in St. Peter Port, Guernsey

Now
72 °F

Sunny.


Feels Like: 77 °F
Forecast: 61 / 69 °F
Wind: 6 mph from Southeast

Location: Guernsey Airport

Current Time: Aug 2, 2015 at 8:35:18 PM

Latest Report: Aug 2, 2015 at 7:50 PM


Visibility: 10 mi

Pressure: 29.83 "Hg

Humidity: 53%

Dew point: 54 °F

Location of St. Peter PortLocation

Historic Weather in St. Peter Port — Graph

°F

St. Peter Port temperature yesterday

Maximum temperature yesterday: 64 °F (at 1:50 PM)
Minimum temperature yesterday: 52 °F (at 4:20 AM)
Average temperature yesterday: 59 °F

Past Weeks' High & Low Weather Summary

 TemperatureHumidityPressure
High77 °F (Aug 2, 3:50 PM)100% (Jul 19, 4:20 AM)30.15 "Hg (Jul 19, 4:20 AM)
Low52 °F (Aug 1, 4:20 AM)39% (Aug 2, 2:50 PM)29.59 "Hg (Jul 24, 3:50 PM)
Average61 °F79%29.94 "Hg
* Reported Jul 18 7:20 PM — Aug 2 7:20 PM, St. Peter Port, Weather by CustomWeather, © 2015

Note: Actual official high and low records may vary slightly from our data, if they occured in-between our weather recording intervals... More about our weather records

Advertising

St. Peter Port weather history for previous 24 hours

 ConditionsComfort  
Time TempWeatherWind HumidityBarometerVisibility
7:20 PM
Sun, Aug 2
73 °FSunny.8 mph50%29.86 "Hg10 mi
6:50 PM75 °FSunny.8 mph44%29.86 "Hg10 mi
6:20 PM75 °FSunny.9 mph44%29.86 "Hg10 mi
5:50 PM75 °FSunny.10 mph44%29.86 "Hg10 mi
5:20 PM75 °FSunny.10 mph41%29.89 "Hg10 mi
4:50 PM77 °FSunny.10 mph39%29.89 "Hg10 mi
4:20 PM75 °FSunny.13 mph41%29.92 "Hg10 mi
3:50 PM77 °FSunny.14 mph39%29.92 "Hg10 mi
3:20 PM75 °FSunny.15 mph41%29.92 "Hg10 mi
2:50 PM75 °FSunny.15 mph39%29.92 "Hg10 mi
2:20 PM73 °FSunny.15 mph44%29.95 "Hg10 mi
1:50 PM72 °FSunny.15 mph47%29.95 "Hg10 mi
1:20 PM70 °FSunny.14 mph53%29.98 "Hg10 mi
12:50 PM68 °FSunny.13 mph64%29.98 "Hg10 mi
12:20 PM66 °FSunny.12 mph68%29.98 "Hg10 mi
11:50 AM64 °FSunny.10 mph73%29.98 "Hg10 mi
11:20 AM64 °FSunny.12 mph73%30.01 "Hg10 mi
10:50 AM64 °FSunny.13 mph73%30.01 "Hg10 mi
10:20 AM64 °FSunny.13 mph73%30.01 "Hg10 mi
9:50 AM63 °FSunny.13 mph77%30.01 "Hg10 mi
9:20 AM63 °FSunny.12 mph77%30.01 "Hg10 mi
8:50 AM63 °FSunny.10 mph83%30.04 "Hg10 mi
8:20 AM61 °FSunny.12 mph88%30.04 "Hg10 mi
7:50 AM61 °FSunny.10 mph88%30.04 "Hg10 mi
7:20 AM59 °FSunny.9 mph94%30.04 "Hg10 mi
6:50 AM59 °FSunny.9 mph88%30.04 "Hg10 mi
6:20 AM57 °FClear.9 mph94%30.04 "Hg10 mi
5:50 AM57 °FClear.9 mph94%30.04 "Hg10 mi
5:20 AM55 °FClear.8 mph94%30.04 "Hg10 mi
4:50 AM54 °FClear.8 mph94%30.04 "Hg10 mi
4:20 AM52 °FClear.5 mph100%30.04 "Hg10 mi
3:50 AM52 °FClear.8 mph94%30.04 "Hg10 mi
8:50 PM
Sat, Aug 1
57 °FSunny.2 mph82%30.07 "Hg10 mi
8:20 PM59 °FSunny.3 mph77%30.09 "Hg10 mi
Weather by CustomWeather, © 2015

See weather overviewHow to use our weather pages